Regional Weather Roundup
Issued by NWS Lake Charles, LA

Home | Current Version | Previous Version | Text Only | Print | Product List | Glossary On
Versions: 1 2 3 4 5 6 7 8 9 10 11 12 13 14 15 16 17 18 19 20 21 22 23 24 25 26 27 28
000
ASUS44 KLCH 280010
RWRLCH
REGIONAL WEATHER ROUNDUP
NATIONAL WEATHER SERVICE LAKE CHARLES LA
700 PM CDT TUE SEP 27 2016

Note: "fair" indicates few or no clouds below 12,000 feet with no
significant weather and/or obstructions to visibility.


ACROSS SOUTHEAST TEXAS

CITY           SKY/WX    TMP DP  RH WIND       PRES   REMARKS
BEAUMONT       PTCLDY    80  70  71 N7        29.95R
BEAUMONT CITY  FAIR      79  70  74 N3        29.96S
ORANGE         CLOUDY    78  68  71 CALM      29.97R
JASPER         PTCLDY    79  65  62 CALM      30.00R
$$

ACROSS CENTRAL LOUISIANA

CITY           SKY/WX    TMP DP  RH WIND       PRES   REMARKS
LEESVILLE      CLOUDY    77  67  69 N6        29.96R
FULLERTON      NOT AVBL
ALEXANDRIA INT PTCLDY    77  64  64 N5        29.94R
ESLER FIELD    CLOUDY    73  68  84 CALM      29.96R
DERIDDER       FAIR      77  65  67 NW3       29.98S
OAKDALE        CLOUDY    76  72  87 CALM      29.96R
OPELOUSAS      FAIR      77  68  73 NW5       29.95R
$$

ACROSS SOUTHWEST AND SOUTH CENTRAL LOUISIANA

CITY           SKY/WX    TMP DP  RH WIND       PRES   REMARKS
SULPHUR        PTCLDY    80  72  75 CALM      29.95S
LAKE CHARLES   PTCLDY    81  70  69 N5        29.94S
CHENNAULT INT  CLEAR     81  72  74 CALM      29.95R
CAMERON PHI    PTCLDY    82  72  69 CALM      29.93S
DEQUINCY       FAIR      77  71  83 CALM      29.96S
JENNINGS       FAIR      80  70  72 N5        29.94S
LAFAYETTE      PTCLDY    82  70  66 NE5       29.94R
NEW IBERIA     PTCLDY    82  71  69 N6        29.94R
ABBEVILLE      FAIR      80  72  77 N5        29.94R
PATTERSON      CLEAR     82  75  79 NW5       29.93R
SALT POINT     NOT AVBL
$$

SELECTED SITES ACROSS THE REGION

CITY           SKY/WX    TMP DP  RH WIND       PRES   REMARKS
HOUSTON BUSH   CLOUDY    79  68  69 N8        29.98R
HOUSTON HOBBY  MOCLDY    82  69  64 N8        29.96R
GALVESTON      PTCLDY    82  72  71 N8        29.95S
COLLEGE STAT   PTCLDY    78  63  59 NW5       30.01S
CONROE         CLOUDY    76  69  79 NW3       29.99S
HUNTSVILLE     PTCLDY    76  64  66 CALM      30.00S
LUFKIN         PTCLDY    76  61  59 CALM      29.99R
SHREVEPORT     CLOUDY    75  58  55 NW5       29.98S
MONROE         MOCLDY    76  59  55 N5        29.97R
NATCHEZ MS     PTCLDY    73  64  73 CALM      29.95S
BATON ROUGE    PTCLDY    82  72  71 CALM      29.93R
N.O. INTL ARPT MOCLDY    87  72  60 CALM      29.91R
SLIDELL        PTCLDY    81  75  82 CALM      29.91R
$$

MARINE REPORTS

STATION/POSITION TIME  SKY/WX   TEMP    WIND        PRES    VSBY
                                AIR SEA DIR/SP/G
                 (UTC)          (F)     (DEG/KT/KT) (MB)    (MI)
BUOY 30 S HIGH I 2350            81 86  290/  2/  2 1014.5R
WVE H/P(F/S)=  2/ 6

SEA RIM ST PARK  0000            80     340/  5/  5 1014.7R
PORT ARTHUR      2300               86  330/  5/  7 1014.0R
SABINE PASS N    2300            82 86   10/  9/ 11 1015.4R
TEXAS POINT      NOT AVBL
CALCASIEU PASS   2300            83 86  340/  5/  6 1012.8R
LK CHARLES BEACH 2300            83 85              1014.2R
MARSH ISLAND     2300            84                   N/A
FRESH WATER LOCK 2300            83 87  260/  5/  7 1014.0R
AMERADA PASS     2300            83 86  330/  1/  3 1013.1R
$$




USA.gov is the U.S. government's official web portal to all federal, state and local government web resources and services.